Creek Data

    Home     View Charts     View Raw Data     Messages

ID Distance Battery Voltage Battery Current Internal Temp Internal Humidity External Temp Solar Input rssi snr Time Stamp Record
68306 15.1 3.70 0 71 46 71 5.1 -74 8 03/08/2026 11:15 AM 51171
68305 15.1 3.70 5 70 46 66 5.1 -74 7 03/08/2026 11:00 AM 51170
68304 15.1 4.00 5 68 46 69 5.1 -74 7 03/08/2026 10:45 AM 51169
68303 15.0 3.74 5 66 46 66 5.1 -74 7 03/08/2026 10:30 AM 51168
68302 15.0 3.70 0 63 46 67 5.1 -74 8 03/08/2026 10:15 AM 51167
68301 15.0 4.05 0 61 46 64 5.1 -73 8 03/08/2026 10:00 AM 51166
68300 15.0 4.03 5 58 46 63 5.1 -74 7 03/08/2026 09:45 AM 51165
68299 14.9 3.71 5 55 47 61 5.1 -73 8 03/08/2026 09:30 AM 51164
68298 14.9 3.95 5 52 48 58 5.1 -74 8 03/08/2026 09:15 AM 51163
68297 14.8 3.70 5 49 48 58 5.1 -74 8 03/08/2026 09:00 AM 51162
68296 14.8 3.74 5 47 49 53 5.1 -74 8 03/08/2026 08:45 AM 51161
68295 14.8 4.04 0 45 50 52 5.1 -74 8 03/08/2026 08:30 AM 51160
68294 14.7 3.91 40 43 51 48 4.5 -75 9 03/08/2026 08:15 AM 51159
68293 14.8 3.92 5 42 51 44 4.5 -75 8 03/08/2026 08:00 AM 51158
68292 14.7 3.78 8 42 52 46 4.5 -75 9 03/08/2026 07:45 AM 51157
68291 14.7 3.43 -9 41 52 44 4.3 -75 9 03/08/2026 07:30 AM 51156
68290 14.8 3.46 -5 42 52 43 0.9 -76 9 03/08/2026 07:15 AM 51155
68289 14.7 3.47 -5 42 52 44 0.1 -76 9 03/08/2026 07:00 AM 51154
68288 14.7 3.46 -5 42 52 44 0 -76 9 03/08/2026 06:45 AM 51153
68287 14.7 3.67 -5 42 52 45 0 -75 8 03/08/2026 06:30 AM 51152
68286 14.7 3.44 -5 42 52 44 0 -75 9 03/08/2026 06:15 AM 51151
68285 14.7 3.44 -5 42 52 43 0 -75 9 03/08/2026 06:00 AM 51150
68284 14.7 3.68 -5 43 52 43 0 -75 10 03/08/2026 05:45 AM 51149
68283 14.7 3.43 -5 43 52 44 0 -75 9 03/08/2026 05:30 AM 51148
68282 14.7 3.68 -5 43 52 45 0 -75 9 03/08/2026 05:15 AM 51147